| time (UTC) | temp C | wind direction | speed KPH | gust KPH | rain 1hr cm | rain 24hr cm | rain mn cm | humidity % | barometer mb |
| 20260506135022 | 17 | 146 | 4.8 | 9.7 | 0.00 | 0.89 | 0.03 | 64 | 1006.2 |
| 20260506134019 | 17 | 150 | 3.2 | 9.7 | 0.00 | 0.89 | 0.03 | 60 | 1006.4 |
| 20260506133016 | 18 | 148 | 1.6 | 6.4 | 0.00 | 0.89 | 0.03 | 63 | 1006.2 |
| 20260506132113 | 17 | 142 | 3.2 | 6.4 | 0.00 | 0.89 | 0.03 | 67 | 1006.4 |
| 20260506125102 | 16 | 171 | 6.4 | 11.3 | 0.00 | 0.89 | 0.03 | 68 | 1006.4 |
| 20260506122052 | 17 | 165 | 3.2 | 11.3 | 0.00 | 0.89 | 0.03 | 66 | 1006.7 |
| 20260506121049 | 16 | 155 | 3.2 | 9.7 | 0.00 | 0.89 | 0.03 | 68 | 1006.7 |
| 20260506111028 | 16 | 154 | 4.8 | 12.9 | 0.00 | 0.89 | 0.03 | 75 | 1007.0 |
| 20260506104018 | 16 | 149 | 4.8 | 12.9 | 0.00 | 0.89 | 0.03 | 75 | 1006.9 |
| 20260506103115 | 15 | 135 | 3.2 | 6.4 | 0.00 | 0.89 | 0.03 | 79 | 1007.0 |
| 20260506102112 | 17 | 149 | 3.2 | 9.7 | 0.00 | 0.89 | 0.03 | 75 | 1007.1 |
| 20260506101108 | 16 | 148 | 4.8 | 9.7 | 0.00 | 0.89 | 0.03 | 76 | 1007.1 |
| 20260506095101 | 15 | 145 | 4.8 | 9.7 | 0.00 | 0.89 | 0.03 | 80 | 1007.1 |
| 20260506094058 | 15 | 158 | 1.6 | 6.4 | 0.00 | 0.89 | 0.03 | 81 | 1007.2 |
| 20260506092051 | 15 | 146 | 3.2 | 6.4 | 0.00 | 0.89 | 0.03 | 83 | 1007.1 |
| 20260506091047 | 15 | 123 | 3.2 | 6.4 | 0.00 | 0.89 | 0.03 | 84 | 1007.2 |
| 20260506085041 | 13 | 138 | 3.2 | 6.4 | 0.00 | 0.89 | 0.03 | 86 | 1007.0 |
| 20260506084037 | 13 | 162 | 4.8 | 6.4 | 0.00 | 0.89 | 0.03 | 87 | 1006.8 |
| 20260506083034 | 14 | 135 | 1.6 | 6.4 | 0.00 | 0.89 | 0.03 | 88 | 1006.9 |
| 20260506082030 | 13 | 142 | 3.2 | 6.4 | 0.00 | 0.89 | 0.03 | 89 | 1006.7 |
| 20260506073113 | 12 | 168 | 1.6 | 6.4 | 0.00 | 0.89 | 0.03 | 94 | 1006.8 |
| 20260506071107 | 12 | 148 | 1.6 | 6.4 | 0.00 | 0.89 | 0.03 | 98 | 1006.7 |
| 20260506062050 | 11 | 153 | 1.6 | 6.4 | 0.00 | 0.89 | 0.03 | 99 | 1006.7 |
| 20260506061046 | 11 | 150 | 0.0 | 3.2 | 0.00 | 0.89 | 0.03 | 99 | 1006.9 |
| 20260506051026 | 11 | 158 | 3.2 | 6.4 | 0.00 | 0.89 | 0.03 | 99 | 1006.9 |
| 20260506045019 | 11 | 147 | 3.2 | 6.4 | 0.00 | 0.89 | 0.03 | 99 | 1007.0 |
| 20260506044015 | 11 | 140 | 1.6 | 6.4 | 0.00 | 0.89 | 0.03 | 99 | 1006.9 |
| 20260506043112 | 11 | 135 | 3.2 | 6.4 | 0.00 | 0.89 | 0.03 | 99 | 1006.9 |
| 20260506042109 | 11 | 140 | 1.6 | 6.4 | 0.00 | 0.89 | 0.03 | 99 | 1006.9 |
| 20260506041106 | 11 | 154 | 3.2 | 6.4 | 0.00 | 0.89 | 0.03 | 99 | 1006.8 |
| 20260506034055 | 11 | 147 | 1.6 | 6.4 | 0.00 | 0.89 | 0.03 | 99 | 1006.5 |
| 20260506032048 | 11 | 154 | 3.2 | 6.4 | 0.00 | 0.89 | 0.03 | 99 | 1006.5 |
| 20260506030041 | 11 | 132 | 3.2 | 9.7 | 0.00 | 0.89 | 0.03 | 99 | 1006.6 |
| 20260506025038 | 11 | 159 | 3.2 | 6.4 | 0.00 | 0.89 | 0.03 | 99 | 1006.7 |
| 20260506024035 | 11 | 143 | 1.6 | 9.7 | 0.00 | 0.89 | 0.03 | 99 | 1006.7 |
| 20260506023031 | 11 | 152 | 4.8 | 6.4 | 0.00 | 0.89 | 0.03 | 99 | 1006.8 |
| 20260506021024 | 11 | 161 | 4.8 | 9.7 | 0.00 | 0.89 | 0.03 | 99 | 1006.7 |
| 20260506020021 | 11 | 141 | 1.6 | 6.4 | 0.00 | 0.89 | 0.03 | 99 | 1006.8 |
| 20260506015018 | 11 | 146 | 3.2 | 6.4 | 0.00 | 1.02 | 0.03 | 99 | 1006.7 |
| 20260506014114 | 11 | 133 | 3.2 | 6.4 | 0.03 | 1.02 | 0.03 | 99 | 1006.8 |
| 20260506013111 | 11 | 148 | 1.6 | 9.7 | 0.03 | 1.02 | 0.03 | 99 | 1007.1 |
| 20260506011104 | 11 | 158 | 0.0 | 3.2 | 0.03 | 1.02 | 0.03 | 99 | 1007.0 |
| 20260506004055 | 11 | 144 | 3.2 | 6.4 | 0.00 | 1.02 | 0.00 | 99 | 1007.3 |
| 20260506003050 | 11 | 143 | 1.6 | 3.2 | 0.00 | 1.02 | 0.00 | 99 | 1007.2 |
| 20260506002047 | 11 | 158 | 1.6 | 3.2 | 0.00 | 1.02 | 0.00 | 99 | 1007.4 |
| 20260506001044 | 11 | 158 | 3.2 | 3.2 | 0.00 | 1.02 | 0.00 | 99 | 1007.4 |
| 20260506000040 | 11 | 143 | 1.6 | 3.2 | 0.00 | 1.02 | 0.00 | 99 | 1007.6 |
| 20260505235037 | 11 | 146 | 0.0 | 3.2 | 0.00 | 1.02 | 0.00 | 99 | 1007.5 |
| 20260505233030 | 11 | 147 | 1.6 | 6.4 | 0.00 | 1.02 | 0.00 | 99 | 1007.6 |
| 20260505232027 | 11 | 158 | 0.0 | 3.2 | 0.00 | 1.02 | 0.00 | 99 | 1007.6 |
| 20260505231023 | 11 | 158 | 1.6 | 6.4 | 0.00 | 1.02 | 0.00 | 99 | 1007.6 |
| 20260505230020 | 11 | 158 | 0.0 | 6.4 | 0.00 | 1.02 | 0.00 | 98 | 1007.5 |
| 20260505225017 | 11 | 158 | 1.6 | 3.2 | 0.00 | 1.02 | 0.00 | 98 | 1007.6 |
| 20260505224113 | 11 | 158 | 1.6 | 3.2 | 0.00 | 1.02 | 0.00 | 98 | 1007.5 |
| 20260505223110 | 11 | 0.0 | 0.0 | 0.00 | 1.02 | 0.00 | 98 | 1007.5 | |
| 20260505222107 | 11 | 0.0 | 3.2 | 0.00 | 1.02 | 0.00 | 98 | 1007.6 | |
| 20260505221103 | 11 | 121 | 1.6 | 3.2 | 0.00 | 1.02 | 0.00 | 98 | 1007.6 |
| 20260505215056 | 11 | 0.0 | 0.0 | 0.00 | 1.02 | 1.02 | 98 | 1007.7 | |
| 20260505214053 | 11 | 0.0 | 0.0 | 0.00 | 1.02 | 1.02 | 98 | 1007.8 | |
| 20260505213050 | 11 | 113 | 0.0 | 3.2 | 0.00 | 1.02 | 1.02 | 98 | 1007.9 |
| 20260505212046 | 11 | 49 | 0.0 | 3.2 | 0.00 | 1.02 | 1.02 | 98 | 1007.9 |
| 20260505211043 | 11 | 333 | 1.6 | 3.2 | 0.03 | 1.02 | 1.02 | 98 | 1007.9 |
| 20260505210039 | 11 | 338 | 0.0 | 3.2 | 0.03 | 1.02 | 1.02 | 98 | 1008.0 |
| 20260505205036 | 11 | 0.0 | 3.2 | 0.03 | 1.02 | 1.02 | 98 | 1007.6 | |
| 20260505204033 | 11 | 341 | 1.6 | 6.4 | 0.05 | 1.02 | 1.02 | 98 | 1007.5 |
| 20260505203029 | 12 | 0.0 | 3.2 | 0.05 | 1.02 | 1.02 | 98 | 1007.6 | |
| 20260505202026 | 12 | 0.0 | 0.0 | 0.05 | 1.02 | 1.02 | 98 | 1007.6 | |
| 20260505201022 | 11 | 135 | 0.0 | 3.2 | 0.03 | 0.99 | 0.99 | 98 | 1007.7 |
| 20260505195015 | 11 | 135 | 1.6 | 3.2 | 0.03 | 0.99 | 0.99 | 98 | 1007.7 |
| 20260505194112 | 11 | 178 | 1.6 | 3.2 | 0.00 | 0.97 | 0.97 | 97 | 1007.8 |
| 20260505193109 | 11 | 293 | 0.0 | 3.2 | 0.03 | 0.97 | 0.97 | 97 | 1007.6 |
| 20260505192105 | 11 | 0.0 | 3.2 | 0.05 | 0.97 | 0.97 | 97 | 1007.6 | |
| 20260505190059 | 11 | 0.0 | 3.2 | 0.05 | 0.97 | 0.97 | 97 | 1007.5 | |
| 20260505185055 | 12 | 0.0 | 0.0 | 0.05 | 0.97 | 0.97 | 97 | 1007.5 | |
| 20260505184052 | 12 | 0.0 | 3.2 | 0.05 | 0.97 | 0.97 | 97 | 1007.5 | |
| 20260505183049 | 12 | 45 | 0.0 | 3.2 | 0.10 | 0.94 | 0.94 | 97 | 1007.3 |
| 20260505182045 | 12 | 0.0 | 3.2 | 0.15 | 0.89 | 0.89 | 97 | 1007.4 | |
| 20260505181042 | 12 | 0.0 | 0.0 | 0.18 | 0.89 | 0.89 | 97 | 1007.4 | |
| 20260505180038 | 12 | 312 | 1.6 | 6.4 | 0.28 | 0.89 | 0.89 | 97 | 1007.1 |
| 20260505175035 | 12 | 348 | 4.8 | 12.9 | 0.33 | 0.89 | 0.89 | 97 | 1006.9 |
| 20260505174031 | 12 | 13 | 1.6 | 3.2 | 0.36 | 0.89 | 0.89 | 96 | 1007.2 |
| 20260505173028 | 12 | 132 | 1.6 | 3.2 | 0.30 | 0.84 | 0.84 | 96 | 1007.3 |
| 20260505172025 | 12 | 139 | 3.2 | 9.7 | 0.20 | 0.76 | 0.76 | 96 | 1007.5 |
| 20260505171021 | 12 | 134 | 3.2 | 6.4 | 0.18 | 0.71 | 0.71 | 96 | 1007.6 |
| 20260505164112 | 13 | 124 | 4.8 | 12.9 | 0.28 | 0.53 | 0.53 | 93 | 1007.4 |
| 20260505163108 | 13 | 293 | 1.6 | 6.4 | 0.38 | 0.53 | 0.53 | 91 | 1007.0 |
| 20260505162104 | 13 | 315 | 0.0 | 3.2 | 0.38 | 0.53 | 0.53 | 90 | 1006.8 |
| 20260505161101 | 13 | 4 | 4.8 | 9.7 | 0.38 | 0.53 | 0.53 | 90 | 1006.5 |
| 20260505153047 | 18 | 161 | 1.6 | 6.4 | 0.00 | 0.15 | 0.15 | 68 | 1006.8 |
| 20260505152044 | 19 | 56 | 3.2 | 9.7 | 0.00 | 0.15 | 0.15 | 61 | 1006.5 |
| 20260505140115 | 21 | 26 | 3.2 | 11.3 | 0.00 | 0.15 | 0.15 | 52 | 1007.0 |